Rechercher aéroport 
image banner adimage banner adimage banner ad
image banner ad

27CL - Sopwith Farm

Situé à Pleasant Grove, United States

ICAO - 27CL, IATA -

Données fournies par Airmate  

Information générale

Coordonnées: N38°44'50" W121°34'22"
Élévation : 20 feet MSL.
Variation magnétique : 16° East
Voir autres Aéroports à California

Données opérationnelles

Special qualification required
Heure actuelle UTC:
Heure actuelle locale:
Météo à : KSMF - Sacramento Intl ( 6 km )
METAR: KSMF 292353Z 18010KT 10SM FEW250 39/16 A2979 RMK AO2 SLP086 T03940156 10400 20278 56018
TAF: KSMF 292350Z 3000/3024 23005KT P6SM FEW250 FM300200 19008KT P6SM FEW250 FM301100 16005KT P6SM FEW150 FM302300 20007KT P6SM SKC
Voir NOTAMs / SUP AIP / TFR affectant cet aéroport [VIEW]
Fréquences de communication: [VIEW]

Pistes:

Identifiant RWYQFULongueur (ft)Largeur (ft)SurfaceLDA (ft)
16200060OTHER
34200060OTHER

Coordonnées de l'aéroport

Adresse: Pleasant Grove United States

Vue satellite de 27CL